Terug naar catalogus

STARLINK-32142

ActiefCommunicatieVLEO
NORAD 60291·PAYLOAD·🇺🇸 United States

Gelanceerd Jul 28, 2024 vanaf Cape Canaveral Space Force Station

Loading…

Volgende Passages (komende 24 uur)

TLE

VersSource: CelesTrak SupGP

Epoch: Sep 14, 2026, 21:11 UTC

1 60291C 24132P   26257.88312500  .00053705  00000+0  15871-2 0  2579
2 60291  53.1564 251.6452 0001182  94.7227 312.9209 15.34357528    12

Volg STARLINK-32142 in realtime met AllMySat

Download on the App Store